Location: Codford Saint Peter
(51.1597°N, 2.0531°W)
Time: 13:18:12
(UTC+00:00)

NOSS 8 (H) - Pass Details

Date: 18 September 2020
Orbit: 384 x 1790 km, 63.3° (Epoch: 22 October)

Event Time Altitude Azimuth Distance (km) Brightness Sun altitude
Rises 19:07:35 0° 211° (SSW) 2,416 8.3 -9.0°
Reaches altitude 10° 19:09:46 10° 206° (SSW) 1,469 7.2 -9.4°
Maximum altitude 19:12:46 50° 130° (SE) 504 4.3 -9.8°
Drops below altitude 10° 19:15:43 10° 53° (NE) 1,433 6.6 -10.3°
Enters shadow 19:17:07 - 49° (NE) 2,037 7.4 -10.5°
